[[{"header":{"parameterUnit":"m.s-1","parameterCategory":1,"la1":30.2991,"la2":30.254,"lo1":-89.0895,"lo2":-89.0444,"dy":0.0017,"dx":0.0017,"nx":28,"ny":28,"refTime":"2024-05-04T21:00:00:Z","depth":0,"parameterNumber":2,"parameterNumberName":"U-component_of_WINDS"},"data":[0,0,0,0,0,0,0,0,0,0,0,0,0,0,0,0,0,0,0,0,0,0,0,0,0,0,0,0,0,0,0,0,0,0,0,0,0,0,0,0,0,0,0,0,0,0,0,0,0,0,0,0,0,0,0,0,0,0,-1.7192,-1.7191,0,-1.7157,-1.7157,-1.7157,-1.7111,-1.711,-1.7109,-1.7109,-1.7073,-1.7073,-1.7073,0,0,0,0,0,0,0,0,0,0,0,0,0,-1.7218,-1.7218,-1.7192,-1.7191,-1.7191,-1.7157,-1.7157,-1.7157,-1.7111,-1.711,-1.7109,-1.7108,-1.7073,-1.7073,-1.7072,0,0,0,0,0,0,0,0,0,0,0,0,0,-1.7197,-1.7217,-1.7192,-1.7164,-1.7161,-1.7158,-1.7157,-1.7156,-1.7111,-1.711,-1.7109,-1.7108,-1.7073,-1.7073,-1.7072,-1.7093,0,0,-1.7071,-1.7071,0,0,0,0,0,0,0,0,-1.7199,-1.7196,-1.7168,-1.7166,-1.7163,-1.7137,-1.7153,-1.7135,-1.7112,-1.713,-1.7109,-1.7107,-1.7095,-1.7093,-1.7089,-1.7091,-1.709,-1.7071,-1.7071,-1.7071,-1.7071,0,0,0,0,0,0,0,-1.72,-1.7198,-1.7178,-1.7168,-1.7165,-1.7153,-1.7149,-1.7149,-1.7119,-1.7128,-1.7125,-1.7122,-1.7093,-1.709,-1.7088,-1.7089,-1.7071,-1.7071,-1.7071,-1.7071,-1.7107,-1.7108,0,0,0,0,0,0,-1.7206,-1.7199,-1.7179,-1.7177,-1.7178,-1.7154,-1.7149,-1.7147,-1.7119,-1.7114,-1.7123,-1.712,-1.7091,-1.7088,-1.7086,-1.7109,-1.7071,-1.7071,-1.707,-1.7106,-1.7108,-1.7109,0,0,0,0,0,0,-1.7206,-1.7204,-1.718,-1.7187,-1.7183,-1.7155,-1.7152,-1.7147,-1.7142,-1.7115,-1.7109,-1.7124,-1.709,-1.7087,-1.7092,-1.7107,-1.707,-1.707,-1.7105,-1.7107,-1.7108,-1.7153,0,0,0,0,0,0,-1.7207,-1.7205,-1.7212,-1.7188,-1.7183,-1.7186,-1.7153,-1.7147,-1.7142,-1.7138,-1.7115,-1.711,-1.7089,-1.7093,-1.7092,-1.7106,-1.707,-1.7103,-1.7106,-1.7108,-1.715,-1.7156,-1.7162,0,0,0,0,0,-1.7208,-1.7226,-1.7213,-1.721,-1.7192,-1.7187,-1.7185,-1.716,-1.7143,-1.7151,-1.7133,-1.7111,-1.7106,-1.7094,-1.7092,-1.7106,-1.7102,-1.7105,-1.7107,-1.7148,-1.7155,-1.7161,0,0,0,0,0,0,-1.7252,-1.7222,-1.7207,-1.7217,-1.7205,-1.718,-1.7188,-1.7169,-1.7161,-1.7157,-1.7127,-1.7122,-1.7131,-1.7119,-1.7106,-1.7125,-1.7101,-1.7103,-1.7132,-1.7139,-1.7144,-1.7146,-1.7069,0,0,0,0,0,-1.7263,-1.7262,-1.7236,-1.7247,-1.7242,-1.7216,-1.7213,-1.7196,-1.7182,-1.7177,-1.7159,-1.7147,-1.7143,-1.714,-1.7135,-1.7149,-1.7143,-1.7158,-1.7164,-1.7169,-1.7171,-1.7178,-1.7184,-1.7118,-1.7118,-1.7118,0,0,-1.7285,-1.7269,-1.727,-1.7256,-1.7244,-1.7244,-1.7212,-1.7213,-1.7213,-1.7177,-1.718,-1.7168,-1.7152,-1.7162,-1.7165,-1.7152,-1.7188,-1.7172,-1.7176,-1.7175,-1.7181,-1.7188,-1.7193,-1.712,-1.7119,-1.7119,0,0,-1.7325,-1.7313,-1.7321,-1.7311,-1.7294,-1.7277,-1.7279,-1.7257,-1.7247,-1.7251,-1.7224,-1.7223,-1.7216,-1.7206,-1.72,-1.7239,-1.7218,-1.7238,-1.7267,-1.7274,-1.728,-1.7284,-1.7298,-1.7303,-1.7241,-1.7241,-1.7241,0,-1.7354,-1.7353,-1.7328,-1.733,-1.7325,-1.7294,-1.7302,-1.7293,-1.7276,-1.7273,-1.7259,-1.725,-1.7238,-1.7245,-1.7254,-1.7251,-1.7252,-1.724,-1.7281,-1.7285,-1.7289,-1.7302,-1.7307,-1.7243,-1.7243,-1.7243,-1.7242,0,-1.739,-1.739,-1.7398,-1.7383,-1.7379,-1.7384,-1.736,-1.7359,-1.7343,-1.7327,-1.7331,-1.7315,-1.7306,-1.7307,-1.729,-1.7312,-1.7305,-1.7287,-1.7261,-1.7298,-1.7309,-1.7314,-1.7247,-1.7246,-1.7245,-1.7245,0,0,-1.7455,-1.7426,-1.743,-1.7423,-1.7403,-1.7402,-1.7407,-1.7399,-1.7398,-1.7388,-1.7391,-1.7387,-1.7371,-1.7364,-1.7346,-1.7353,-1.7385,-1.7334,-1.7333,-1.7343,-1.7408,-1.7421,-1.7427,-1.7372,-1.7372,-1.7373,-1.7409,0,-1.749,-1.7496,-1.7474,-1.7486,-1.7485,-1.7457,-1.7461,-1.7449,-1.7436,-1.7434,-1.7419,-1.7416,-1.7394,-1.739,-1.7396,-1.738,-1.7397,-1.7377,-1.7374,-1.7374,-1.7377,-1.7433,-1.7446,-1.7481,-1.7413,-1.7414,-1.7415,0,-1.7532,-1.7525,-1.7536,-1.7517,-1.7516,-1.752,-1.7511,-1.751,-1.7497,-1.7486,-1.748,-1.746,-1.7464,-1.7441,-1.7446,-1.7433,-1.743,-1.7423,-1.7423,-1.7421,-1.7396,-1.7431,-1.7492,-1.7497,-1.7421,-1.7421,-1.742,0,-1.7577,-1.757,-1.7577,-1.7572,-1.7549,-1.7553,-1.7544,-1.753,-1.7527,-1.7519,-1.7517,-1.751,-1.7506,-1.7501,-1.748,-1.7466,-1.7488,-1.7463,-1.7479,-1.7479,-1.7483,-1.7483,-1.7543,-1.7484,-1.7484,-1.7484,-1.7484,0,-1.7619,-1.7627,-1.7597,-1.76,-1.7609,-1.7585,-1.7594,-1.7582,-1.757,-1.7571,-1.7546,-1.7548,-1.7521,-1.752,-1.7503,-1.751,-1.7508,-1.75,-1.7495,-1.7502,-1.7503,-1.7499,-1.7495,-1.7485,-1.7485,-1.7485,-1.7484,0,-1.767,-1.765,-1.7655,-1.7634,-1.7629,-1.7637,-1.7619,-1.7622,-1.7607,-1.7609,-1.7608,-1.7585,-1.7583,-1.7562,-1.7555,-1.7544,-1.7556,-1.7547,-1.7561,-1.7557,-1.7574,-1.7573,-1.7633,-1.764,-1.7577,-1.7578,-1.7578,0,-1.7697,-1.7703,-1.7683,-1.7682,-1.7675,-1.7673,-1.767,-1.7647,-1.7645,-1.7631,-1.7636,-1.7631,-1.7626,-1.7624,-1.7607,-1.7602,-1.7592,-1.7614,-1.7591,-1.7597,-1.7592,-1.7591,-1.7592,-1.7618,-1.7619,-1.7619,-1.762,0,-1.7748,-1.7738,-1.7734,-1.7728,-1.7725,-1.7718,-1.771,-1.7711,-1.7685,-1.7684,-1.7681,-1.7678,-1.7671,-1.7667,-1.7659,-1.765,-1.7631,-1.7628,-1.7631,-1.7637,-1.7644,-1.764,-1.7573,-1.7626,-1.7625,-1.7625,-1.7625,-1.7624,-1.7787,-1.7791,-1.7778,-1.7775,-1.7767,-1.776,-1.7762,-1.7748,-1.7746,-1.7738,-1.7725,-1.7725,-1.7713,-1.77,-1.7693,-1.7692,-1.7681,-1.7686,-1.7687,-1.7688,-1.7691,-1.7645,-1.7691,-1.7691,-1.769,-1.769,-1.769,0,-1.7836,-1.7827,-1.7824,-1.7814,-1.7812,-1.7795,-1.7786,-1.7785,-1.7785,-1.7775,-1.7771,-1.7769,-1.7765,-1.7749,-1.7744,-1.7747,-1.7738,-1.7746,-1.7745,-1.7743,-1.7702,-1.7699,-1.7753,-1.7753,-1.7753,-1.7753,-1.7753,-1.7753,-1.7861,-1.7867,-1.7856,-1.7858,-1.7848,-1.7847,-1.7844,-1.7838,-1.783,-1.7828,-1.7825,-1.7815,-1.7803,-1.7797,-1.7793,-1.7788,-1.7787,-1.7798,-1.7791,-1.7752,-1.7746,-1.774,-1.7737,-1.7798,-1.7798,-1.7832,-1.7832,-1.7832]},{"header":{"parameterUnit":"m.s-1","parameterCategory":1,"la1":30.2991,"la2":30.254,"lo1":-89.0895,"lo2":-89.0444,"dy":0.0017,"dx":0.0017,"nx":28,"ny":28,"refTime":"2024-05-04T21:00:00:Z","depth":0,"parameterNumber":3,"parameterNumberName":"V-component_of_WINDS"},"data":[0,0,0,0,0,0,0,0,0,0,0,0,0,0,0,0,0,0,0,0,0,0,0,0,0,0,0,0,0,0,0,0,0,0,0,0,0,0,0,0,0,0,0,0,0,0,0,0,0,0,0,0,0,0,0,0,0,0,3.9298,3.9298,0,3.9309,3.9309,3.9309,3.9365,3.9366,3.9368,3.9369,3.9377,3.9376,3.9375,0,0,0,0,0,0,0,0,0,0,0,0,0,3.932,3.932,3.9297,3.9298,3.9298,3.9309,3.9309,3.9309,3.9365,3.9367,3.9368,3.937,3.9377,3.9376,3.9375,0,0,0,0,0,0,0,0,0,0,0,0,0,3.9319,3.9319,3.9297,3.9327,3.933,3.9309,3.9309,3.9309,3.9365,3.9367,3.9369,3.937,3.9378,3.9376,3.9375,3.9326,0,0,3.937,3.9369,0,0,0,0,0,0,0,0,3.9319,3.9318,3.9322,3.9325,3.9328,3.9338,3.932,3.9315,3.9364,3.9351,3.9369,3.9371,3.9362,3.9362,3.936,3.9326,3.9326,3.937,3.9369,3.9368,3.9368,0,0,0,0,0,0,0,3.9319,3.9318,3.9302,3.9322,3.9326,3.9339,3.9341,3.932,3.9345,3.9352,3.9357,3.9357,3.9364,3.9361,3.936,3.9326,3.937,3.9369,3.9368,3.9367,3.9253,3.9251,0,0,0,0,0,0,3.9315,3.9317,3.9302,3.9302,3.9328,3.9337,3.9339,3.9333,3.9346,3.935,3.9356,3.936,3.9363,3.9362,3.9361,3.9304,3.9368,3.9367,3.9366,3.9255,3.9252,3.925,0,0,0,0,0,0,3.9316,3.9313,3.9301,3.9311,3.9311,3.9334,3.9327,3.9332,3.9329,3.9348,3.9353,3.9348,3.9364,3.9363,3.9334,3.9305,3.9366,3.9365,3.9257,3.9254,3.9251,3.9189,0,0,0,0,0,0,3.9316,3.9313,3.9295,3.931,3.931,3.9275,3.9325,3.9331,3.9327,3.9332,3.9342,3.9346,3.9366,3.9336,3.9333,3.9304,3.9364,3.926,3.9256,3.9252,3.9194,3.9184,3.9176,0,0,0,0,0,3.9317,3.9277,3.9294,3.9292,3.9288,3.9273,3.9273,3.9298,3.9324,3.9306,3.9318,3.9345,3.9309,3.9333,3.9329,3.9299,3.9262,3.9257,3.9252,3.9198,3.9186,3.9176,0,0,0,0,0,0,3.9256,3.9279,3.9299,3.9263,3.9266,3.9283,3.926,3.9284,3.9279,3.9284,3.9315,3.9316,3.9283,3.9289,3.9315,3.9253,3.929,3.9284,3.925,3.9239,3.923,3.9229,3.9362,0,0,0,0,0,3.9239,3.9226,3.9246,3.9212,3.9213,3.9236,3.9231,3.925,3.9254,3.9255,3.9265,3.9267,3.9256,3.9248,3.9239,3.9196,3.9198,3.9173,3.9165,3.9157,3.9151,3.9129,3.9118,3.9234,3.9234,3.9234,0,0,3.9202,3.9213,3.9203,3.92,3.9205,3.919,3.9237,3.9219,3.9208,3.9252,3.9225,3.9233,3.9237,3.9201,3.9185,3.9204,3.912,3.9151,3.9145,3.9143,3.9123,3.9111,3.9102,3.9231,3.9232,3.9232,0,0,3.9128,3.9135,3.9108,3.9112,3.9119,3.9135,3.9128,3.9142,3.9149,3.9124,3.9156,3.9143,3.9124,3.9125,3.9123,3.905,3.9075,3.9047,3.8999,3.8977,3.8968,3.896,3.8933,3.8923,3.9041,3.9041,3.9041,0,3.9081,3.9061,3.909,3.907,3.9068,3.9109,3.9081,3.9083,3.9086,3.9083,3.9105,3.9082,3.9087,3.9052,3.9034,3.9031,3.9024,3.9045,3.8967,3.8959,3.8952,3.8927,3.8917,3.9037,3.9038,3.9038,3.9039,0,3.9002,3.8988,3.8965,3.8968,3.8963,3.8939,3.8964,3.8956,3.8975,3.8989,3.8962,3.897,3.8964,3.8957,3.8975,3.8924,3.8936,3.8962,3.9,3.8937,3.8914,3.8904,3.9032,3.9034,3.9035,3.9036,0,0,3.8889,3.891,3.8901,3.8903,3.8914,3.8903,3.8881,3.8876,3.8867,3.8868,3.885,3.8833,3.8857,3.8855,3.8874,3.8855,3.8796,3.8883,3.8884,3.8866,3.8739,3.8719,3.8707,3.8813,3.8811,3.881,3.8738,0,3.8817,3.8781,3.8808,3.8767,3.8753,3.8792,3.8773,3.8777,3.8789,3.8779,3.8792,3.8779,3.8813,3.8812,3.8794,3.8807,3.8771,3.8812,3.8795,3.8794,3.8791,3.8695,3.8673,3.8605,3.873,3.8728,3.8727,0,3.8728,3.8727,3.8685,3.87,3.8695,3.8677,3.8675,3.8665,3.867,3.868,3.8678,3.8703,3.8681,3.872,3.869,3.8718,3.8712,3.8717,3.8715,3.8713,3.8756,3.869,3.8584,3.8574,3.8713,3.8714,3.8715,0,3.8649,3.8636,3.861,3.861,3.8627,3.8613,3.8619,3.8627,3.8622,3.862,3.8617,3.8612,3.8608,3.8603,3.8625,3.8652,3.8592,3.8633,3.8599,3.8598,3.8584,3.8584,3.8475,3.8582,3.8582,3.8582,3.8582,0,3.8566,3.8538,3.8574,3.8558,3.8528,3.8558,3.8528,3.8538,3.8544,3.853,3.8563,3.8549,3.8579,3.8568,3.8585,3.8557,3.8555,3.8562,3.8567,3.8559,3.8558,3.8554,3.8559,3.8579,3.858,3.858,3.8581,0,3.8471,3.8494,3.8468,3.8486,3.849,3.8467,3.8482,3.8467,3.8482,3.8463,3.8461,3.8484,3.8472,3.8494,3.8484,3.8496,3.8456,3.8469,3.8455,3.8458,3.8423,3.8426,3.8307,3.8293,3.8409,3.8408,3.8407,0,3.8416,3.8396,3.8412,3.8406,3.841,3.8399,3.8395,3.8424,3.8418,3.8423,3.8407,3.8399,3.8393,3.8372,3.8387,3.8379,3.8391,3.835,3.839,3.8383,3.839,3.839,3.8388,3.8342,3.834,3.8339,3.8338,0,3.8315,3.8328,3.8322,3.8319,3.8313,3.8312,3.8314,3.8306,3.8337,3.8328,3.8317,3.8313,3.8304,3.8294,3.8291,3.8296,3.8322,3.8326,3.8318,3.8308,3.8301,3.8304,3.8431,3.8328,3.8329,3.833,3.833,3.8331,3.8238,3.8222,3.8232,3.8223,3.8228,3.8229,3.8215,3.8229,3.8221,3.8217,3.8234,3.8219,3.8225,3.8224,3.8226,3.8214,3.8232,3.822,3.8217,3.8213,3.8208,3.8304,3.8213,3.8214,3.8214,3.8214,3.8215,0,3.8139,3.8147,3.8139,3.8141,3.8134,3.8161,3.8164,3.8156,3.8142,3.8147,3.8141,3.8128,3.8119,3.8134,3.8127,3.8114,3.8126,3.8112,3.8112,3.8113,3.8192,3.82,3.8102,3.8102,3.8102,3.8102,3.8102,3.8102,3.8086,3.8061,3.8075,3.8052,3.806,3.8047,3.8046,3.8046,3.805,3.8034,3.8028,3.8038,3.8046,3.8041,3.8033,3.8038,3.8034,3.8015,3.8023,3.8096,3.8107,3.8118,3.8125,3.8014,3.8014,3.7945,3.7945,3.7944]}]]